TOURFACTS.DK  
Stats and Facts from Tour de France.

Tour de France 2019 starts in 347 days
  Riders   Stages   Teams   Summits   Yearly  


 
Search by year

After 2018 - Stage 14:
 15000 starters.
  5163 different riders.
  639 teams.
  2246 stages.
  456 restdays.
  441957.60 km.
  5678 abandonnees.


Top 3
GC
Christopher Froome86:20:55
Rigoberto Urán86:21:49
Romain Bardet86:23:15
Climb
Warren Barguil169 pt.
Primoz Roglic80 pt.
Thomas De Gendt64 pt.
Sprint
Michael Matthews359 pt.
André Greipel234 pt.
Edvald Boasson Hagen220 pt.
Youth
Simon Yates86:27:09
Louis Meintjes86:29:15
Emanuel Buchmann86:54:16
Facts from Tour de France 1974
  |   Stages.  |   Stage winners.  |   Days in yellow  |   Average speed.  |   Route.  |   Teams.  |   All riders.  |   Rookies.  |  

  |   Withdrawls.  |   GC.  |   Polka  |   Green  |   White  |   Summits. (In tour)  |   Miscellaneous.  |  

Stage 19b on July 18th. 1974
         Owning:    Eddy Merckx    
Pick a stage:  Pro 1 2 3 4 5 6a 6b 7 8a 8b 9 10 11 12 13 14 15 16 17 18 19a 19b 20 21a 21b 22
From: Bordeaux    To: BordeauxDist:12.40 km.

Average speed for all riders in stage:  42,294 km./hr.
    Place:Name:Team:Time:Km/h:
BELEddy MerckxITAMolteni00:16:15  +  00:00:00=45,785 
BELMichel PollentierBELCarpenter Confortluxe-Flandria00:16:17  +  00:00:02=45,691 
NEDGerrie KnetemannFRAGan-Mercier-Hutchinson00:16:28  +  00:00:13=45,182 
4 NEDGerard VianenFRAGan-Mercier-Hutchinson00:16:33  +  00:00:18=44,955 
5 FRARaymond PoulidorFRAGan-Mercier-Hutchinson00:16:35  +  00:00:20=44,864 
6 PORJoaquim AgostinhoFRABic00:16:36  +  00:00:21=44,819 
7 BELJoseph BruyereITAMolteni00:16:39  +  00:00:24=44,685 
8 ESPJosé PesarrodonaESPKas-Kaskol00:16:41  +  00:00:26=44,595 
9 BELDirk BaertBELMic-De Gribaldy-Ludo00:16:41  +  00:00:26=44,595 
10 BELWilfried WesemaelBELMic-De Gribaldy-Ludo00:16:44  +  00:00:29=44,462 
11 ESPJesus ManzanequeESPLa Casera-Peña Bahamontes00:16:44  +  00:00:29=44,462 
12 ENGBarry HobanFRAGan-Mercier-Hutchinson00:16:46  +  00:00:31=44,374 
13 NEDGerben KarstensFRABic00:16:47  +  00:00:32=44,330 
14 FRAJean-Claude MisacFRAMerlin Plage-Flandria00:16:48  +  00:00:33=44,286 
15 FRAJean-Pierre DanguillaumeFRAPeugeot-BP-Michelin00:16:51  +  00:00:36=44,154 
16 ESPDomingo PerurenaESPKas-Kaskol00:16:53  +  00:00:38=44,067 
17 BELJoseph SpruytITAMolteni00:16:56  +  00:00:41=43,937 
18 ITAFausto BertoglioITABrooklyn00:16:57  +  00:00:42=43,894 
19 BELAndré DierickxFRAMerlin Plage-Flandria00:17:01  +  00:00:46=43,722 
20 FRABernard CroyetFRABic00:17:01  +  00:00:46=43,722 
21 ESPMariano MartinezFRASonolor-Gitanes00:17:05  +  00:00:50=43,551 
22 ESPGonzalo AjaESPKas-Kaskol00:17:07  +  00:00:52=43,466 
23 FRARoger PingeonFRAJobo-Lejeune00:17:08  +  00:00:53=43,424 
24 BELMarc LievensITAMolteni00:17:10  +  00:00:55=43,340 
25 ITAWladimiro PanizzaITABrooklyn00:17:12  +  00:00:57=43,256 
26 BELWilly TeirlinckFRASonolor-Gitanes00:17:12  +  00:00:57=43,256 
27 FRAJean-Pierre GuillemotFRAJobo-Lejeune00:17:12  +  00:00:57=43,256 
28 BELNoël VancloosterBELMic-De Gribaldy-Ludo00:17:12  +  00:00:57=43,256 
29 ESPVicente LopezESPKas-Kaskol00:17:12  +  00:00:57=43,256 
30 BELHerman Van SpringelBELMic-De Gribaldy-Ludo00:17:14  +  00:00:59=43,172 
31 NEDFedor Iwan Den HertogNLDFrisol-Flair Plastics00:17:15  +  00:01:00=43,130 
32 FRARégis OvionFRAPeugeot-BP-Michelin00:17:15  +  00:01:00=43,130 
33 FRACharly RouxelFRAPeugeot-BP-Michelin00:17:17  +  00:01:02=43,047 
34 NEDPiet Van KatwijkNLDFrisol-Flair Plastics00:17:18  +  00:01:03=43,006 
35 AUSDonald AllanNLDFrisol-Flair Plastics00:17:18  +  00:01:03=43,006 
36 ITAGiancarlo BelliniITABrooklyn00:17:18  +  00:01:03=43,006 
37 FRASylvain VasseurFRABic00:17:19  +  00:01:04=42,964 
38 ESPMiguel LasaESPKas-Kaskol00:17:21  +  00:01:06=42,882 
39 ESPJuan ZuranoESPLa Casera-Peña Bahamontes00:17:23  +  00:01:08=42,800 
40 BELMarc DemeyerBELCarpenter Confortluxe-Flandria00:17:23  +  00:01:08=42,800 
41 ESPCarlos MeleroESPKas-Kaskol00:17:26  +  00:01:11=42,677 
42 BELGeorges PintensBELMic-De Gribaldy-Ludo00:17:30  +  00:01:15=42,514 
43 FRAAlain SantyFRAGan-Mercier-Hutchinson00:17:30  +  00:01:15=42,514 
44 BELLucien Van ImpeFRASonolor-Gitanes00:17:30  +  00:01:15=42,514 
45 BELJos De SchoenmaeckerITAMolteni00:17:32  +  00:01:17=42,433 
46 FRAFrancis CampanerFRAJobo-Lejeune00:17:33  +  00:01:18=42,393 
47 FRAJosé CatieauFRABic00:17:33  +  00:01:18=42,393 
48 FRADaniel RebillardFRAMerlin Plage-Flandria00:17:34  +  00:01:19=42,353 
49 BELRonald De WitteBELCarpenter Confortluxe-Flandria00:17:34  +  00:01:19=42,353 
50 BELFrans MintjensITAMolteni00:17:35  +  00:01:20=42,313 
51 FRAJean-Luc MolinerisFRABic00:17:35  +  00:01:20=42,313 
52 FRAAlain CiganaFRAJobo-Lejeune00:17:37  +  00:01:22=42,233 
53 FRARaymond DelisleFRAPeugeot-BP-Michelin00:17:38  +  00:01:23=42,193 
54 FRAGerard MoneyronFRAMerlin Plage-Flandria00:17:38  +  00:01:23=42,193 
55 FRARaymond RiotteFRAPeugeot-BP-Michelin00:17:39  +  00:01:24=42,153 
56 FRAChristian RaymondFRAGan-Mercier-Hutchinson00:17:39  +  00:01:24=42,153 
57 BELLudo DelcroixITAMolteni00:17:40  +  00:01:25=42,113 
58 BELEduard JanssensITAMolteni00:17:41  +  00:01:26=42,074 
59 FRAMichel PerinFRAGan-Mercier-Hutchinson00:17:41  +  00:01:26=42,074 
60 ITAValerio LualdiITABrooklyn00:17:42  +  00:01:27=42,034 
61 FRAJean-Pierre GenetFRAGan-Mercier-Hutchinson00:17:42  +  00:01:27=42,034 
62 BELWilly Van NesteFRASonolor-Gitanes00:17:42  +  00:01:27=42,034 
63 FRABernard LabourdetteFRABic00:17:43  +  00:01:28=41,994 
64 BELPatrick SercuITABrooklyn00:17:43  +  00:01:28=41,994 
65 BELRonny VanmarckeBELMic-De Gribaldy-Ludo00:17:43  +  00:01:28=41,994 
66 ITAArturo PecchielanITABrooklyn00:17:44  +  00:01:29=41,955 
67 FRAFerdinand JulienFRASonolor-Gitanes00:17:46  +  00:01:31=41,876 
68 FRAAndré MolletFRAPeugeot-BP-Michelin00:17:47  +  00:01:32=41,837 
69 BELJoseph HuysmansITAMolteni00:17:47  +  00:01:32=41,837 
70 ENGMichael WrightFRASonolor-Gitanes00:17:49  +  00:01:34=41,759 
71 FRAChristian BlainFRAJobo-Lejeune00:17:49  +  00:01:34=41,759 
72 BELGustaaf Van RoosbroeckBELMic-De Gribaldy-Ludo00:17:49  +  00:01:34=41,759 
73 BELVictor Van SchilITAMolteni00:17:53  +  00:01:38=41,603 
74 ITAGianni Di LorenzoITABrooklyn00:17:53  +  00:01:38=41,603 
75 COLAntonio MartosESPKas-Kaskol00:17:54  +  00:01:39=41,564 
76 FRABernard BourreauFRAPeugeot-BP-Michelin00:17:56  +  00:01:41=41,487 
77 BELJan Van De WieleBELMic-De Gribaldy-Ludo00:17:58  +  00:01:43=41,410 
78 ESPAndrês OlivaESPLa Casera-Peña Bahamontes00:17:59  +  00:01:44=41,372 
79 FRAClaude MagniFRAJobo-Lejeune00:18:00  +  00:01:45=41,333 
80 FRARoland BerlandFRABic00:18:01  +  00:01:46=41,295 
81 ESPAndré RomeroFRAJobo-Lejeune00:18:02  +  00:01:47=41,257 
82 BELDaniel VerplanckeBELCarpenter Confortluxe-Flandria00:18:04  +  00:01:49=41,181 
83 FRAJean-Jacques SanquerFRAMerlin Plage-Flandria00:18:04  +  00:01:49=41,181 
84 FRAAlain NoguesFRASonolor-Gitanes00:18:04  +  00:01:49=41,181 
85 ESPDamaso TorresESPLa Casera-Peña Bahamontes00:18:06  +  00:01:51=41,105 
86 FRAJoël MillardFRAMerlin Plage-Flandria00:18:09  +  00:01:54=40,992 
87 BELArthur Van de VyverBELCarpenter Confortluxe-Flandria00:18:09  +  00:01:54=40,992 
88 FRAAlain VasseurFRABic00:18:09  +  00:01:54=40,992 
89 FRAJacky MouriouxFRAGan-Mercier-Hutchinson00:18:10  +  00:01:55=40,954 
90 ITAAldo ParecchiniITABrooklyn00:18:13  +  00:01:58=40,842 
91 FRARobert MintkiewiczFRASonolor-Gitanes00:18:14  +  00:01:59=40,804 
92 ITALorenzo AlaimoNLDFrisol-Flair Plastics00:18:15  +  00:02:00=40,767 
93 FRAJacques BotherelFRASonolor-Gitanes00:18:17  +  00:02:02=40,693 
94 FRARegis DelepineFRAMerlin Plage-Flandria00:18:17  +  00:02:02=40,693 
95 ESPAntonio MenendezESPKas-Kaskol00:18:18  +  00:02:03=40,656 
96 FRAGuy SibilleFRAPeugeot-BP-Michelin00:18:18  +  00:02:03=40,656 
97 FRADaniel DucreuxFRAJobo-Lejeune00:18:19  +  00:02:04=40,619 
98 ESPJosé AbilleiraESPLa Casera-Peña Bahamontes00:18:20  +  00:02:05=40,582 
99 FRAJacques EsclassanFRAPeugeot-BP-Michelin00:18:26  +  00:02:11=40,362 
100 FRABernard MassonFRAJobo-Lejeune00:18:30  +  00:02:15=40,216 
101 FRACyrille GuimardFRAMerlin Plage-Flandria00:18:32  +  00:02:17=40,144 
102 BELFrans Van LooyBELCarpenter Confortluxe-Flandria00:18:33  +  00:02:18=40,108 
103 ESPLuis ZuberoESPKas-Kaskol00:18:34  +  00:02:19=40,072 
104 NEDWim PrinsenNLDFrisol-Flair Plastics00:18:36  +  00:02:21=40,000 
105 NEDHenk PrinsenNLDFrisol-Flair Plastics00:18:36  +  00:02:21=40,000 
106 FRAMichel CorollerFRAMerlin Plage-Flandria00:18:45  +  00:02:30=39,680 
107 ESPFernando PlazaESPLa Casera-Peña Bahamontes00:18:45  +  00:02:30=39,680 


Todays birthdays.

1887  Donald Kirkham
1889  Théodore Abada
1911  Guillaume Chavard
1912  Jean Fontenay
1913  Fabien Galateau
1930  Roger Hassenforder
1930  Richard Van Genechten
1936  Philippe Gaudrillet
1937  Joseph Novales
1954  Hans-Peter Jakst
1960  Manuel Ramos
1973  David Etxebarria
1974  Rik Verbrugghe
1976  Jörg Jaksche




Visits: